Weather in Kostino

Russia / Vladimir Oblast     55°59′15″N   39°21′29″E
temp.,
°C
wind,
m/s
gust,
m/s
humid.,
%
clouds,
%
prec.,
mm/h
press.,
hPa
HPBL,
m
22 september, wed
wed2200:00+5ene41096100 1.6 1013526
03:00+5ene41097100 3.9 1012552
06:00+5ene4996100 1.5 1011602
09:00+5ene4896100 1.6 1011532
12:00+5ene3797100 0.7 1012451
15:00+6ene2698100 1.5 1012418
18:00+7ese2499100 0.2 1013268
21:00+5ese229710 0.2 101443
23 september, thu
thu2300:00+6ne2496100 0.0 101599
03:00+7ene399784 0.5 1014316
06:00+7ene3897100 0.8 1014308
09:00+8e3594100 0.8 1014276
12:00+8ene2599100 2.4 1013263
15:00+11e3387100 0.4 1012522
18:00+8se2699100 0.0 1012250
21:00+7sse2598100 0.1 1011135
24 september, fri
fri2400:00+6sse2697100 0.0 1010163
03:00+5se289780 0.0 1009184
06:00+5sse3997100 0.0 1008277
09:00+7sse4991100 0.1 1007650
12:00+8sse51087100 0.4 10071030
15:00+9sse598289 0.9 10051113
18:00+8sse4107989 0.1 1005819
21:00+6se3118858 0.2 1006376
25 september, sat
sat2500:00+7se31084100 0.0 1006420
03:00+5ese259597 0.1 1003117
06:00+7se2783100 0.0 1007276
09:00+7se2686100 0.1 1007289
12:00+9s1382100 0.0 1008290
15:00+10s1279100 0.0 1009382
18:00+8s1187100 0.0 100913
21:00+8ssw1189100 0.0 101026
26 september, sun
sun2600:00+8s2291100 0.1 100959
03:00+7sw2293100 0.1 100937
06:00+7nnw1190100 0.0 100919
09:00+8n1288100 0.1 101098
12:00+10ne237787 0.1 1011541
15:00+10nne257880 0.3 1013505
18:00+9n268699 0.1 1014177
21:00+7n3893100 0.2 1016240